Location: *
(48.8489°N, 2.3218°E)
Time: 19:09:52
(UTC+00:00)

GP-B - Pass Details

Date: 23 August 2019
Orbit: 631 x 635 km, 89.8° (Epoch: 14 October)

Event Time Altitude Azimuth Distance (km) Brightness Sun altitude
Rises 21:02:37 0° 357° (N) 2,948 7.3 -19.1°
Reaches altitude 10° 21:04:53 10° 352° (N) 2,034 6.5 -19.3°
Maximum altitude 21:09:13 51° 277° (W) 802 3.9 -19.8°
Enters shadow 21:12:29 17° 206° (SSW) 1,622 5.0 -20.2°
